Weather Roundup
Issued by NWS

Home | Current Version | Previous Version | Text Only | Print | Product List | Glossary On
Versions: 1 2 3 4 5 6 7 8 9 10 11 12 13 14 15 16 17 18 19 20 21 22 23 24 25 26 27 28 29 30 31 32 33 34 35 36 37 38 39 40 41 42 43 44 45 46 47 48 49 50
903
NZUS93 KARX 101810
HRRWXR

CURRENT HOURLY OBSERVATIONS ACROSS
MUCH OF THE UPPER MISSISSIPPI VALLEY
NATIONAL WEATHER SERVICE LA CROSSE WI
1200 PM CST WED FEB 10 2016


...SOUTHEAST MINNESOTA...


CITY           SKY/WX    TMP DP  RH WIND       PRES   REMARKS
ROCHESTER      CLOUDY     7  -4  60 NW6       30.05F WCI  -3
ROCHESTER/MAYO CLOUDY     7  -3  63 W8        30.07S WCI  -6
WINONA         CLOUDY    10   0  61 W5        30.12F WCI   2
AUSTIN         CLOUDY     7   0  72 N3        30.06F
ALBERT LEA     CLOUDY     9   0  66 NE3       30.06F
DODGE CENTER   MOSUNNY   12   0  57 CALM      30.05F
PRESTON        CLOUDY     6  -4  62 CALM      30.06F
OWATONNA       CLOUDY     9  -4  56 CALM      30.07F
FARIBAULT        N/A      9  -2  61 N3        30.09F
$$

...ELSEWHERE IN MINNESOTA...


CITY           SKY/WX    TMP DP  RH WIND       PRES   REMARKS
MINNEAPOLIS    PTSUNNY    9  -4  55 VRB5      30.12F WCI   1
INTNL FALLS    SUNNY     -4 -14  62 N7        30.16S WCI -18
DULUTH         SUNNY      5  -9  52 N7        30.06F WCI  -7
RED WING       CLOUDY     7  -6  56 NE5       30.11F WCI  -2
REDWOOD FALLS  CLOUDY    10   4  76 SE7       30.09S WCI  -1
MANKATO        CLOUDY     9   0  66 E3        30.09F
WORTHINGTON    CLOUDY    10   5  79 E12       30.00F WCI  -4
FAIRMONT       CLOUDY     9   1  72 E6        30.05F WCI  -1
$$

...SOUTHWEST WISCONSIN...


CITY           SKY/WX    TMP DP  RH WIND       PRES   REMARKS
LA CROSSE      SUNNY      8  -3  61 NW6       30.11F WCI  -2
PRAIRIE DU CHI CLOUDY    11  -4  51 CALM      30.09F
BOSCOBEL       MOSUNNY   14  -3  47 N5        30.09F WCI   6
LONE ROCK      NOT AVBL
PLATTEVILLE    SUNNY     11  -1  59 NW8       30.05F WCI  -1
FORT MC COY    SUNNY     10  -2  57 N8        30.08F WCI  -2
CAMP DOUGLAS   MOSUNNY   10   0  61 W10       30.05F WCI  -3
VIROQUA        FAIR       8  -3  61 NW7       30.03F WCI  -4
WIS DELLS      SUNNY     10  -3  54 NW8       30.03F WCI  -1
$$

...ELSEWHERE IN WISCONSIN...


CITY           SKY/WX    TMP DP  RH WIND       PRES   REMARKS
MILWAUKEE      MOSUNNY   13  -2  51 NW12      30.01F WCI  -1
MADISON        MOSUNNY   10  -2  58 N12       30.03F WCI  -5
GREEN BAY      SUNNY     11  -4  51 N14G24    30.01F WCI  -5
EAU CLAIRE     MOSUNNY    6  -5  60 VRB7      30.09F WCI  -6
BLACK RVR FLS  FAIR      10  -5  51 NW3       30.08F
MEDFORD        CLOUDY     7  -4  61 N3        30.00F
WAUSAU         PTSUNNY   10  -4  53 N9G20     29.99F WCI  -3
WIS RAPIDS     MIX PCPN   9  -4  55 N9        30.04F WCI  -4
MARSHFIELD     MOSUNNY    8  -4  58 NW9       30.01S WCI  -5
RICE LAKE      CLOUDY     5  -4  67 W6        30.10F WCI  -6
$$

...NORTHEAST IOWA...


CITY           SKY/WX    TMP DP  RH WIND       PRES   REMARKS
WATERLOO       CLOUDY    11   0  61 NE5       30.10F WCI   3
DUBUQUE        MOSUNNY   11   0  61 NW7       30.05F WCI   0
DECORAH        CLOUDY     7  -4  61 NW6       30.06S WCI  -3
MASON CITY     CLOUDY     9   2  73 CALM      30.08F
CHARLES CITY   CLOUDY     9  -2  61 N5        30.09F WCI   0
OELWEIN        CLOUDY     9  -2  61 N7        30.08F WCI  -3
$$

...ELSEWHERE IN IOWA...


CITY           SKY/WX    TMP DP  RH WIND       PRES   REMARKS
DES MOINES     FLURRIES  17  11  77 E8        30.07F WCI   7
IOWA CITY      CLOUDY    15   2  56 W7        30.13F WCI   5
FORT DODGE     CLOUDY    12   7  79 E13       30.06F WCI  -3
MARSHALLTOWN   LGT SNOW  11   7  84 E5        30.08F FOG     WCI   3
CEDAR RAPIDS   CLOUDY    12   2  64 NW6       30.09F WCI   3
$$

...NORTHERN ILLINOIS...


CITY           SKY/WX    TMP DP  RH WIND       PRES   REMARKS
CHICAGO-OHARE  PTSUNNY   14   3  61 NW10      30.02F WCI   1
CHICAGO-MIDWAY PTSUNNY   16   1  51 NW12      30.03F WCI   3
MOLINE         MOSUNNY   16   2  54 NW7       30.10F WCI   6
ROCKFORD       MOSUNNY   15   2  56 NW13G22   30.07F WCI   1
PEORIA         CLOUDY    17   1  49 NW10      30.11F WCI   5
$$

NOTE: "FAIR" INDICATES FEW OR NO CLOUDS BELOW 12,000 FEET WITH NO
SIGNIFICANT WEATHER AND/OR OBSTRUCTIONS TO VISIBILITY. WIND
SPEEDS ARE IN MILES-PER-HOUR.




USA.gov is the U.S. government's official web portal to all federal, state and local government web resources and services.